Погода в Новогорном

Россия / Томская область     58°15′10″N   82°37′58″E
темп.,
°C
ветер,
м/с
пор.,
м/с
влажн.,
%
обл.,
%
осадки,
мм/ч
давл.,
гПа
погр.,
м
24 мая, вт
вт2401:00+12ю4754100 0.0 1020116
04:00+11ююв41155100 0.0 1020223
07:00+13ю51350100 0.0 1019368
10:00+18ююз7103927 0.0 1019643
13:00+23юз6735100 0.0 10181384
16:00+25юз5634100 0.0 10182326
19:00+25ююз343591 0.0 10172014
22:00+20ююз3354100 0.0 101820
25 мая, ср
ср2501:00+16ююз336428 0.0 101828
04:00+15зсз227013 0.0 101918
07:00+17зсз12665 0.0 101985
10:00+22ссз23515 0.0 1018600
13:00+25ссз453873 0.0 10181946
16:00+26ссз673623 0.0 10182220
19:00+25ссв56416 0.0 10181809
22:00+18ссв376758 0.0 1019136
26 мая, чт
чт2601:00+16св367798 0.0 1019104
04:00+14всв3782100 0.0 1021137
07:00+15всв367433 0.0 1021246
10:00+20всв4550100 0.0 10211068
13:00+22всв453574 0.0 10191596
16:00+23всв442928 0.0 10171845
19:00+23всв4430100 0.0 10171753
22:00+17всв35485 0.0 101656
27 мая, пт
пт2701:00+14всв355593 0.0 101577
04:00+13в345795 0.0 101558
07:00+14всв355740 0.0 1015163
10:00+19всв45412 0.0 1014782
13:00+22всв55283 0.0 10131764
16:00+23в55231 0.0 10121966
19:00+23вюв452593 0.0 10111960
22:00+16вюв464216 0.0 101273
28 мая, сб
сб2801:00+14вюв49496 0.0 1011125
04:00+13юв5125977 0.0 1011287
07:00+14вюв5106385 0.0 1012325
10:00+19юв684584 0.0 1011785
13:00+21вюв573993 0.1 10111575
16:00+23юв563261 0.0 10102220
19:00+23юв45354 0.0 10101463
22:00+17всв595468 0.0 1010146